Regional Weather Roundup
Issued by NWS Burlington, VT

Home | Current Version | Previous Version | Text Only | Print | Product List | Glossary On
Versions: 1 2 3 4 5 6 7 8 9 10 11 12 13 14 15 16 17 18 19 20 21 22 23 24 25 26 27 28 29 30 31 32 33 34 35 36 37 38 39 40 41 42 43 44 45 46 47 48 49 50
000
ASUS41 KBTV 270230
RWRBTV
VERMONT REGIONAL WEATHER ROUNDUP
NATIONAL WEATHER SERVICE BURLINGTON VT
900 PM EST WED NOV 26 2014

NOTE: "FAIR" INDICATES FEW OR NO CLOUDS BELOW 12,000 FEET WITH NO
SIGNIFICANT WEATHER AND/OR OBSTRUCTIONS TO VISIBILITY.

* THESE REPORTS ARE NOT UNDER NWS QUALITY CONTROL AND/OR DO NOT
  REPORT WEATHER SUCH AS PRECIPITATION AND FOG.

VTZ001>019-270300-
_____VERMONT_____


CITY           SKY/WX    TMP DP  RH WIND       PRES   REMARKS
BURLINGTON     LGT SNOW  29  26  89 N10       30.00F FOG     WCI  20
MONTPELIER     LGT SNOW  27  25  92 N9        29.96F VSB 1
MORRISVILLE    LGT SNOW  29  25  85 N8        29.98F FOG
ST. JOHNSBURY*   N/A     30  28  92 MISG      29.91F
LYNDONVILLE*   LGT SNOW  28  25  88 W9        29.93S VSB 1
MIDDLEBURY*    LGT SNOW  29  29 100 N9        29.95F
RUTLAND*       CLOUDY    27  27 100 N12       29.89F WCI  16
SPRINGFIELD    LGT SNOW  32  27  81 N7G22     29.88F
HIGHGATE*      LGT SNOW  29  27  95 N9        30.03F
NEWPORT*       LGT SNOW  28  26  94 N14       29.97F WCI  16
BENNINGTON     LGT SNOW  29  26  89 N9        29.86F FOG
GALLUP MILLS*    N/A     28 N/A N/A MISG        N/A
UNION VILLAGE*   N/A     30 N/A N/A MISG        N/A

_____LAKE CHAMPLAIN_____


CITY           SKY/WX    TMP DP  RH WIND       PRES   REMARKS
BURTON ISLAND*   N/A     32  32 100 N3          N/A
COLCHESTER RF*   N/A     32  32 100 N20         N/A
DIAMOND ISL*     N/A     32  30  93 NW18        N/A

$$

NYZ007-026>031-035-052-083-270300-
_____NORTHERN NEW YORK_____


CITY           SKY/WX    TMP DP  RH WIND       PRES   REMARKS
PLATTSBURGH    LGT SNOW  29  27  92 N12       30.04F FOG     WCI  19
SARANAC LAKE   LGT SNOW  24  32 100 N6        29.95F
MASSENA        CLOUDY    31  22  69 N9        30.09F
OGDENSBURG*    CLEAR     30  25  80 NE7       30.05F
POTSDAM*       LGT SNOW  28  27  93 E6        30.05F
STARK FALLS*     N/A     25 N/A N/A N1          N/A
WATERTOWN      CLOUDY    30  22  72 NE10      30.05F
FT DRUM        LGT SNOW  25  25 100 NE8       30.02F FOG
ALBANY         LGT SNOW  32  29  88 N9        29.93F FOG
GLENS FALLS    LGT SNOW  31  28  89 N9        29.94F FOG

$$
NHZ002-005-011-270300-
_____NEW HAMPSHIRE_____


CITY           SKY/WX    TMP DP  RH WIND       PRES   REMARKS
LEBANON        LGT SNOW  32  30  92 N5        29.88S FOG
MT WASHINGTON  SNOW      18  18 100 NE45        N/A  VSB 0   WCI  -5
PLYMOUTH       LGT SNOW  32  32 100 CALM      29.84S
WHITEFIELD     LGT SNOW  30  28  92 CALM      29.88S FOG

$$

_____REGIONAL QUEBEC LOCATIONS_____


CITY           SKY/WX    TMP DP  RH WIND       PRES   REMARKS
MONTREAL       CLOUDY    32  19  59 N12G17    30.09F
QUEBEC CITY    CLOUDY    30  18  59 NE16G23   30.11F WCI  19
SHERBROOKE     LGT SNOW  28  27  93 N6        30.00F VSB 3/4

_____REGIONAL ONTARIO LOCATIONS_____


CITY           SKY/WX    TMP DP  RH WIND       PRES   REMARKS
OTTAWA         CLOUDY    28  19  69 N10       30.09F WCI  19

______KEY______
VSB  - VISIBILITY IN MILES
WCI  - WIND CHILL INDEX
HX   - HEAT INDEX
$$
NNNN


USA.gov is the U.S. government's official web portal to all federal, state and local government web resources and services.